Regional Weather Roundup
Issued by NWS Bismarck, ND

Home | Current Version | Previous Version | Text Only | Print | Product List | Glossary On
Versions: 1 2 3 4 5 6 7 8 9 10 11 12 13 14 15 16 17 18 19 20 21 22 23 24 25 26 27 28 29 30 31 32 33 34 35 36 37 38 39 40 41 42 43 44 45 46 47 48 49 50
000
ASUS43 KBIS 220202
RWRBIS

NWR BROADCAST TEXT
NATIONAL WEATHER SERVICE BISMARCK ND
900 PM CDT WED JUN 21 2017

NOTE: "FAIR" INDICATES FEW OR NO CLOUDS BELOW 12,000 FEET WITH NO
SIGNIFICANT WEATHER AND/OR OBSTRUCTIONS TO VISIBILITY.


CITY           SKY/WX    TMP DP  RH WIND       PRES   REMARKS
WILLISTON      CLEAR     72  36  26 N7        29.76F
MINOT          CLEAR     70  36  28 NW10      29.75R
MINOT AFB      CLEAR     70  38  31 NW9       29.74R
BISMARCK       CLEAR     76  41  28 N9        29.76R
DICKINSON      CLEAR     72  34  24 N7        29.77F
GARRISON         N/A     69  40  34 N8        29.77R
HETTINGER ARPT PTCLDY    76  41  28 NE12      29.80R
JAMESTOWN      CLEAR     73  44  35 NW17      29.71R
HAZEN          FAIR      72  39  30 N6        29.79S
LINTON         FAIR     N/A N/A N/A N8        29.77R
MANDAN         FAIR      73  39  29 N10G16    29.78R
STANLEY        FAIR      68  39  34 N8        29.80F
TIOGA          FAIR      68  37  32 N10       29.79F
WATFORD CITY   FAIR      68  41  37 N8        29.77S
$$

CITY           SKY/WX    TMP DP  RH WIND       PRES   REMARKS
GRAND FORKS    CLEAR     74  56  53 NW12      29.62R
GRAND FORKS AF CLEAR     74  51  44 NW12      29.64R
DEVILS LAKE    CLEAR     70  44  39 W13       29.71R
FARGO          CLEAR     79  55  43 NW20      29.63R
CAVALIER       FAIR      72  48  43 W17G25    29.62R
GRAFTON        FAIR      73  54  49 NW14G21   29.64R
GWINNER        CLEAR     75  57  53 NW14      29.68R
LANGDON        FAIR      66  50  55 NW14      29.68R
ROLLA            N/A     66  43  42 NW10      29.72R
$$

CITY           SKY/WX    TMP DP  RH WIND       PRES   REMARKS
ABERDEEN       MOCLDY    78  66  66 N13       29.67R
MOBRIDGE       CLEAR     80  47  31 N18       29.70R
BUFFALO          N/A     77  40  26 NE10      29.73S
RAPID CITY     CLEAR     82  49  31 N13       29.75F
GLASGOW        LGT RAIN  70  36  28 NW25G35   29.78R
SIDNEY         CLEAR     75  37  25 NE8       29.75F
WOLF POINT     CLEAR     76  36  23 CALM      29.73F
GLENDIVE       CLOUDY    75  37  25 NE6       29.77F
MILES CITY     PTCLDY    77  36  22 NE20      29.75R
BAKER          CLEAR     75  38  26 NE12      29.80S
$$

CITY           SKY/WX    TMP DP  RH WIND       PRES   REMARKS
BILLINGS       PTCLDY    82  46  28 NE3       29.79S
GREAT FALLS    SUNNY     73  24  16 NW21G26   29.87R
$$




USA.gov is the U.S. government's official web portal to all federal, state and local government web resources and services.